[[{"header":{"parameterUnit":"m.s-1","parameterCategory":1,"la1":30.2991,"la2":30.254,"lo1":-89.0895,"lo2":-89.0444,"dy":0.0017,"dx":0.0017,"nx":28,"ny":28,"refTime":"2025-05-29T03:00:00:Z","depth":0,"parameterNumber":2,"parameterNumberName":"U-component_of_WINDS"},"data":[0,0,0,0,0,0,0,0,0,0,0,0,0,0,0,0,0,0,0,0,0,0,0,0,0,0,0,0,0,0,0,0,0,0,0,0,0,0,0,0,0,0,0,0,0,0,0,0,0,0,0,0,0,0,0,0,0,0,-0.4132,-0.4131,0,-0.4062,-0.4061,-0.406,-0.4044,-0.4044,-0.4045,-0.4045,-0.3967,-0.3965,-0.3962,0,0,0,0,0,0,0,0,0,0,0,0,0,-0.4245,-0.4243,-0.4132,-0.4131,-0.413,-0.4062,-0.4061,-0.406,-0.4044,-0.4044,-0.4045,-0.4045,-0.3968,-0.3965,-0.3962,0,0,0,0,0,0,0,0,0,0,0,0,0,-0.4188,-0.4243,-0.4132,-0.4114,-0.4111,-0.4062,-0.4061,-0.406,-0.4043,-0.4044,-0.4045,-0.4046,-0.3969,-0.3966,-0.3962,-0.3924,0,0,-0.395,-0.3949,0,0,0,0,0,0,0,0,-0.4191,-0.4184,-0.4117,-0.4115,-0.4112,-0.4062,-0.4073,-0.4014,-0.4043,-0.4069,-0.4045,-0.4046,-0.3998,-0.3992,-0.3977,-0.392,-0.3917,-0.395,-0.3948,-0.3946,-0.3945,0,0,0,0,0,0,0,-0.4195,-0.4186,-0.4104,-0.4116,-0.4113,-0.4107,-0.41,-0.4061,-0.403,-0.4067,-0.4065,-0.4058,-0.3997,-0.3981,-0.3975,-0.3916,-0.395,-0.3947,-0.3944,-0.3943,-0.3823,-0.3822,0,0,0,0,0,0,-0.4203,-0.419,-0.4106,-0.4102,-0.4154,-0.4105,-0.4096,-0.4077,-0.403,-0.4024,-0.4057,-0.4057,-0.3987,-0.3979,-0.3972,-0.3924,-0.3946,-0.3942,-0.394,-0.3824,-0.3823,-0.3822,0,0,0,0,0,0,-0.4206,-0.4196,-0.4109,-0.4145,-0.4134,-0.4102,-0.4081,-0.4076,-0.406,-0.4023,-0.4017,-0.4047,-0.3987,-0.3977,-0.3936,-0.3921,-0.3941,-0.3937,-0.3825,-0.3824,-0.3823,-0.3827,0,0,0,0,0,0,-0.4209,-0.4197,-0.4183,-0.4145,-0.4132,-0.4076,-0.408,-0.4074,-0.4054,-0.4053,-0.4012,-0.4006,-0.3987,-0.3942,-0.3932,-0.3916,-0.3934,-0.3826,-0.3825,-0.3823,-0.3828,-0.3826,-0.3825,0,0,0,0,0,-0.4213,-0.4186,-0.4182,-0.4172,-0.4115,-0.4075,-0.4067,-0.4048,-0.4053,-0.4038,-0.4015,-0.4007,-0.3925,-0.3938,-0.3927,-0.3909,-0.3827,-0.3825,-0.3823,-0.3829,-0.3827,-0.3825,0,0,0,0,0,0,-0.422,-0.4181,-0.4176,-0.4137,-0.411,-0.4072,-0.4053,-0.4046,-0.4015,-0.4015,-0.3991,-0.3982,-0.3942,-0.3921,-0.3937,-0.387,-0.3876,-0.3872,-0.3884,-0.3881,-0.388,-0.3884,-0.3931,0,0,0,0,0,-0.4218,-0.419,-0.4157,-0.4125,-0.4112,-0.4085,-0.4066,-0.4054,-0.4024,-0.4012,-0.3986,-0.3955,-0.3922,-0.3901,-0.3869,-0.3826,-0.3816,-0.3809,-0.3807,-0.3805,-0.3801,-0.3776,-0.3772,-0.3815,-0.3816,-0.3816,0,0,-0.4211,-0.4186,-0.417,-0.4125,-0.4103,-0.4073,-0.4075,-0.4044,-0.4021,-0.4006,-0.3966,-0.3946,-0.391,-0.3868,-0.3848,-0.385,-0.3787,-0.3803,-0.3802,-0.3798,-0.3774,-0.377,-0.3766,-0.3814,-0.3814,-0.3815,0,0,-0.4183,-0.4163,-0.4134,-0.4112,-0.4079,-0.4061,-0.4055,-0.4019,-0.4005,-0.3965,-0.3954,-0.3926,-0.387,-0.3845,-0.3825,-0.379,-0.3781,-0.378,-0.3769,-0.3745,-0.3742,-0.3739,-0.3725,-0.372,-0.3776,-0.3776,-0.3776,0,-0.4178,-0.4136,-0.4119,-0.4089,-0.4069,-0.4058,-0.4027,-0.4006,-0.3963,-0.3949,-0.3953,-0.3883,-0.3858,-0.3809,-0.3801,-0.3786,-0.3776,-0.3784,-0.3744,-0.3741,-0.3737,-0.3724,-0.3719,-0.3776,-0.3776,-0.3776,-0.3776,0,-0.4131,-0.4101,-0.4082,-0.4043,-0.4021,-0.3991,-0.3968,-0.3948,-0.3938,-0.392,-0.3878,-0.3849,-0.381,-0.3798,-0.3787,-0.3748,-0.375,-0.3749,-0.3754,-0.3734,-0.372,-0.3715,-0.3776,-0.3776,-0.3776,-0.3776,0,0,-0.4103,-0.4058,-0.4051,-0.4033,-0.3997,-0.3973,-0.3942,-0.3906,-0.3889,-0.386,-0.3832,-0.3786,-0.3785,-0.3763,-0.3749,-0.3728,-0.3701,-0.373,-0.3728,-0.3724,-0.3654,-0.3654,-0.3649,-0.3696,-0.3695,-0.3694,-0.3657,0,-0.4071,-0.4017,-0.4002,-0.3955,-0.3927,-0.3916,-0.3889,-0.3863,-0.3845,-0.3817,-0.3797,-0.3765,-0.3767,-0.3753,-0.3732,-0.3709,-0.3686,-0.3712,-0.3668,-0.3666,-0.3675,-0.3642,-0.3641,-0.3607,-0.3652,-0.3651,-0.365,0,-0.4024,-0.3997,-0.3949,-0.3917,-0.3904,-0.388,-0.3847,-0.3821,-0.379,-0.3779,-0.3755,-0.3743,-0.3709,-0.3718,-0.3669,-0.3687,-0.3668,-0.3654,-0.3652,-0.3645,-0.3656,-0.3633,-0.3596,-0.3591,-0.3642,-0.3643,-0.3644,0,-0.4008,-0.3959,-0.3924,-0.3909,-0.3871,-0.3854,-0.3837,-0.3808,-0.3788,-0.3758,-0.3744,-0.371,-0.3691,-0.3664,-0.3643,-0.3652,-0.3596,-0.3603,-0.3583,-0.3584,-0.357,-0.3571,-0.3528,-0.3561,-0.3561,-0.3562,-0.3562,0,-0.3971,-0.3942,-0.3916,-0.3894,-0.386,-0.3843,-0.3809,-0.3791,-0.3766,-0.3739,-0.3727,-0.3702,-0.3677,-0.3647,-0.3631,-0.3592,-0.3584,-0.3572,-0.3567,-0.3572,-0.3573,-0.3558,-0.3559,-0.356,-0.356,-0.3561,-0.3561,0,-0.3946,-0.3928,-0.3889,-0.3857,-0.3848,-0.3824,-0.3796,-0.3773,-0.3757,-0.3723,-0.3713,-0.3686,-0.3651,-0.3628,-0.3583,-0.3572,-0.3529,-0.3526,-0.354,-0.3537,-0.3518,-0.352,-0.3463,-0.3454,-0.3495,-0.3494,-0.3494,0,-0.3923,-0.39,-0.3867,-0.3849,-0.3833,-0.3804,-0.3784,-0.3766,-0.3746,-0.371,-0.3692,-0.3657,-0.3627,-0.3572,-0.3546,-0.3512,-0.3507,-0.3489,-0.3501,-0.3506,-0.3504,-0.3505,-0.3502,-0.3486,-0.3486,-0.3486,-0.3486,0,-0.3884,-0.3876,-0.3849,-0.382,-0.3797,-0.3772,-0.3746,-0.3732,-0.3709,-0.3687,-0.3652,-0.363,-0.3585,-0.355,-0.3513,-0.3493,-0.3484,-0.3483,-0.3476,-0.3479,-0.3487,-0.3481,-0.3533,-0.3483,-0.3483,-0.3484,-0.3484,-0.3484,-0.3857,-0.3837,-0.3811,-0.3781,-0.3761,-0.3738,-0.3715,-0.3697,-0.3668,-0.3632,-0.3623,-0.3586,-0.3556,-0.3507,-0.3486,-0.3456,-0.3458,-0.3449,-0.3446,-0.3443,-0.3442,-0.3494,-0.345,-0.345,-0.345,-0.345,-0.345,0,-0.3816,-0.3799,-0.3773,-0.3739,-0.3715,-0.3713,-0.3685,-0.3665,-0.3634,-0.3608,-0.358,-0.354,-0.3506,-0.3479,-0.3444,-0.3425,-0.342,-0.3416,-0.3416,-0.3411,-0.3443,-0.3452,-0.3421,-0.3421,-0.3421,-0.3421,-0.3421,-0.3421,-0.3792,-0.3757,-0.3747,-0.3701,-0.3684,-0.365,-0.3634,-0.3612,-0.3592,-0.3548,-0.3521,-0.3505,-0.3478,-0.3441,-0.3409,-0.3402,-0.3388,-0.3385,-0.3376,-0.3406,-0.3409,-0.3412,-0.342,-0.3382,-0.3382,-0.3346,-0.3346,-0.3346]},{"header":{"parameterUnit":"m.s-1","parameterCategory":1,"la1":30.2991,"la2":30.254,"lo1":-89.0895,"lo2":-89.0444,"dy":0.0017,"dx":0.0017,"nx":28,"ny":28,"refTime":"2025-05-29T03:00:00:Z","depth":0,"parameterNumber":3,"parameterNumberName":"V-component_of_WINDS"},"data":[0,0,0,0,0,0,0,0,0,0,0,0,0,0,0,0,0,0,0,0,0,0,0,0,0,0,0,0,0,0,0,0,0,0,0,0,0,0,0,0,0,0,0,0,0,0,0,0,0,0,0,0,0,0,0,0,0,0,2.6967,2.6969,0,2.7118,2.712,2.7122,2.7168,2.7167,2.7166,2.7166,2.7319,2.7324,2.7328,0,0,0,0,0,0,0,0,0,0,0,0,0,2.6718,2.6722,2.6967,2.6969,2.6971,2.7118,2.712,2.7122,2.7168,2.7167,2.7166,2.7165,2.7317,2.7323,2.7329,0,0,0,0,0,0,0,0,0,0,0,0,0,2.6843,2.6723,2.6967,2.7011,2.7017,2.7117,2.712,2.7123,2.7168,2.7167,2.7166,2.7165,2.7316,2.7323,2.733,2.7396,0,0,2.7351,2.7355,0,0,0,0,0,0,0,0,2.6836,2.6852,2.7003,2.7009,2.7015,2.7123,2.7088,2.7214,2.7168,2.7111,2.7166,2.7164,2.7255,2.7267,2.7297,2.7403,2.741,2.7352,2.7356,2.736,2.7362,0,0,0,0,0,0,0,2.6827,2.6846,2.7027,2.7005,2.7012,2.7024,2.704,2.7112,2.7187,2.7116,2.7119,2.7137,2.7258,2.729,2.7301,2.7412,2.7352,2.7358,2.7363,2.7365,2.7581,2.7582,0,0,0,0,0,0,2.6811,2.6838,2.7022,2.7031,2.6921,2.7029,2.7048,2.7089,2.7186,2.72,2.7138,2.7138,2.7279,2.7293,2.7307,2.7392,2.7359,2.7366,2.737,2.7579,2.7581,2.7583,0,0,0,0,0,0,2.6805,2.6827,2.7016,2.6936,2.6961,2.7035,2.7081,2.7093,2.7126,2.7203,2.7216,2.7157,2.7278,2.7297,2.7374,2.7398,2.7369,2.7376,2.7578,2.758,2.7582,2.7561,0,0,0,0,0,0,2.6798,2.6824,2.685,2.6936,2.6965,2.708,2.7083,2.7097,2.7138,2.7141,2.7225,2.7238,2.7279,2.7363,2.7381,2.7407,2.7381,2.7576,2.7579,2.7581,2.756,2.7562,2.7564,0,0,0,0,0,2.6789,2.6838,2.6852,2.6873,2.6999,2.7081,2.7098,2.7144,2.714,2.7167,2.7216,2.7235,2.7392,2.737,2.7391,2.742,2.7574,2.7578,2.7581,2.7559,2.7562,2.7564,0,0,0,0,0,0,2.6753,2.685,2.6866,2.6945,2.7004,2.7089,2.7124,2.7146,2.7208,2.7207,2.7262,2.7281,2.7354,2.7395,2.7369,2.7489,2.7484,2.7491,2.746,2.7463,2.7465,2.7454,2.7387,0,0,0,0,0,2.6754,2.6813,2.6895,2.6956,2.6985,2.705,2.7087,2.7118,2.7182,2.7207,2.7263,2.7324,2.7387,2.7428,2.749,2.7566,2.7585,2.7596,2.7598,2.7599,2.7605,2.7649,2.7655,2.7593,2.7593,2.7593,0,0,2.6757,2.6817,2.6851,2.695,2.7,2.706,2.707,2.7133,2.7178,2.7217,2.7293,2.7336,2.7408,2.7485,2.7521,2.7521,2.7627,2.7603,2.7604,2.7609,2.7653,2.7659,2.7664,2.7595,2.7595,2.7595,0,0,2.6793,2.6844,2.6902,2.6952,2.7028,2.707,2.7084,2.7166,2.7196,2.7273,2.7304,2.7358,2.7466,2.7516,2.7556,2.7612,2.7632,2.7631,2.7641,2.7684,2.7689,2.7693,2.7714,2.772,2.7636,2.7636,2.7636,0,2.6786,2.6878,2.6928,2.699,2.7033,2.7071,2.713,2.7176,2.7268,2.7296,2.7295,2.7431,2.7482,2.7572,2.7586,2.7616,2.7634,2.7621,2.7684,2.7689,2.7694,2.7714,2.7722,2.7636,2.7636,2.7636,2.7636,0,2.6867,2.693,2.6967,2.7056,2.7103,2.7163,2.7221,2.7263,2.729,2.7333,2.7412,2.7475,2.7551,2.7575,2.7601,2.7668,2.7666,2.7673,2.7669,2.7699,2.7719,2.7727,2.7635,2.7635,2.7635,2.7635,0,0,2.6884,2.7,2.7013,2.7054,2.7141,2.7191,2.7252,2.7328,2.7363,2.7425,2.7478,2.7569,2.7577,2.7622,2.7655,2.7692,2.7733,2.7695,2.7698,2.77,2.7812,2.7805,2.7813,2.7747,2.7749,2.775,2.7806,0,2.6931,2.7043,2.709,2.718,2.7239,2.7277,2.7331,2.739,2.7432,2.7488,2.7534,2.7598,2.7603,2.7631,2.767,2.772,2.7756,2.7716,2.7797,2.7799,2.7778,2.7824,2.7817,2.7867,2.7814,2.7815,2.7816,0,2.7001,2.7065,2.7161,2.7242,2.7268,2.7316,2.7389,2.7442,2.751,2.7538,2.7589,2.762,2.7686,2.7678,2.777,2.7742,2.7778,2.7808,2.7811,2.782,2.7809,2.7834,2.7884,2.7891,2.7829,2.7828,2.7827,0,2.7004,2.7113,2.7185,2.7219,2.7315,2.7348,2.7389,2.7457,2.7499,2.7563,2.7591,2.7662,2.77,2.7754,2.7804,2.7793,2.7892,2.7887,2.7917,2.7916,2.7936,2.7934,2.7992,2.7959,2.7959,2.7958,2.7958,0,2.7051,2.7109,2.7188,2.7232,2.7298,2.7351,2.7415,2.7459,2.7519,2.7572,2.7609,2.7659,2.7721,2.7779,2.7818,2.7889,2.7906,2.7931,2.794,2.7928,2.7924,2.7952,2.7949,2.796,2.796,2.796,2.7959,0,2.7065,2.7121,2.7202,2.7286,2.7309,2.7354,2.7426,2.7471,2.7515,2.7582,2.7601,2.767,2.774,2.7795,2.7885,2.7912,2.7987,2.7998,2.7964,2.7969,2.7996,2.7992,2.8073,2.8087,2.8044,2.8044,2.8044,0,2.7092,2.7137,2.7227,2.7266,2.7307,2.7369,2.7413,2.7467,2.7512,2.7593,2.7628,2.7701,2.7762,2.7872,2.793,2.8,2.8013,2.8036,2.8023,2.8009,2.8013,2.801,2.8015,2.8037,2.8038,2.8038,2.8038,0,2.7134,2.7159,2.7221,2.7293,2.7344,2.7404,2.7463,2.7493,2.7559,2.7606,2.7679,2.7726,2.7819,2.7891,2.7967,2.801,2.8035,2.8042,2.8052,2.8039,2.8018,2.803,2.7968,2.8039,2.8039,2.8039,2.8039,2.8039,2.7155,2.7198,2.7268,2.7336,2.7387,2.7442,2.7488,2.7538,2.76,2.768,2.7709,2.7783,2.7851,2.7956,2.8,2.8059,2.8061,2.8076,2.808,2.8083,2.8082,2.8009,2.8073,2.8073,2.8073,2.8073,2.8073,0,2.7199,2.7246,2.7308,2.7392,2.7445,2.7464,2.7532,2.7576,2.7641,2.7702,2.7762,2.7845,2.7915,2.798,2.8053,2.8088,2.8101,2.8105,2.8103,2.8113,2.8076,2.8059,2.8093,2.8093,2.8093,2.8093,2.8093,2.8093,2.7228,2.7301,2.7335,2.7433,2.7481,2.7554,2.7591,2.7642,2.7692,2.7783,2.7842,2.7884,2.7947,2.8025,2.8091,2.8108,2.8133,2.8134,2.8154,2.8118,2.8116,2.8113,2.8098,2.8139,2.8139,2.8187,2.8187,2.8188]}]]